This is the latest recevied weather packets stored in our database for station/object YN9ZMM-13. If no packets are shown the sender has not sent any weather packets the latest 10 day(s).
| Time | Temp. | Humidity | Pressure | Rain* | Wind** | Luminosity | Snow |
|---|---|---|---|---|---|---|---|
| 1777929736 | 34.44° C | 27% | 1009 hPa | 0 mm | - | - | - |
| 1777929136 | 33.89° C | 27% | 1009 hPa | 0 mm | - | - | - |
| 1777928536 | 33.33° C | 27% | 1009 hPa | 0 mm | - | - | - |
| 1777927936 | 32.78° C | 27% | 1009 hPa | 0 mm | - | - | - |
| 1777927335 | 32.22° C | 27% | 1009 hPa | 0 mm | - | - | - |
| 1777926735 | 31.67° C | 27% | 1010 hPa | 0 mm | - | - | - |
| 1777926134 | 31.11° C | 27% | 1010 hPa | 0 mm | - | - | - |
| 1777925534 | 30.56° C | 27% | 1010 hPa | 0 mm | - | - | - |
| 1777924333 | 30° C | 27% | 1010 hPa | 0 mm | - | - | - |
| 1777923733 | 29.44° C | 27% | 1010 hPa | 0 mm | - | - | - |
| 1777923133 | 28.89° C | 27% | 1010 hPa | 0 mm | - | - | - |
| 1777922532 | 28.33° C | 27% | 1011 hPa | 0 mm | - | - | - |
| 1777921932 | 27.78° C | 27% | 1011 hPa | 0 mm | - | - | - |
| 1777921332 | 27.78° C | 27% | 1011 hPa | 0 mm | - | - | - |
| 1777920731 | 27.78° C | 27% | 1011 hPa | 0 mm | - | - | - |
| 1777920131 | 27.78° C | 28% | 1011 hPa | 0 mm | - | - | - |
| 1777919531 | 27.78° C | 27% | 1011 hPa | 0 mm | - | - | - |
| 1777918930 | 27.22° C | 29% | 1012 hPa | 0 mm | - | - | - |
| 1777918330 | 27.22° C | 29% | 1012 hPa | 0 mm | - | - | - |
| 1777917730 | 27.22° C | 29% | 1012 hPa | 0 mm | - | - | - |
| 1777917130 | 27.22° C | 29% | 1012 hPa | 0 mm | - | - | - |
| 1777916529 | 26.67° C | 32% | 1013 hPa | 0 mm | - | - | - |
| 1777915929 | 25.56° C | 36% | 1014 hPa | 0 mm | - | - | - |
| 1777915328 | 25.56° C | 36% | 1014 hPa | 0 mm | - | - | - |
| 1777914728 | 25.56° C | 36% | 1014 hPa | 0 mm | - | - | - |
* Rain latest hour (hover to see other rain measurements)
** Current wind speed in m/s (hover to see current wind gust speed)